Regional Weather Roundup
Issued by NWS

Home | Current Version | Previous Version | Graphics & Text | Print | Product List | Glossary On
Versions: 1 2 3 4 5 6 7 8 9 10 11 12 13 14 15 16 17 18 19 20 21 22 23 24 25 26 27 28 29 30 31 32 33 34 35 36 37 38 39 40 41 42 43 44 45 46 47 48 49 50
000
ASUS43 KLOT 280710
RWRIL

ILLINOIS REGIONAL WEATHER ROUNDUP
NATIONAL WEATHER SERVICE CHICAGO/ROMEOVILLE IL
100 AM CST WED JAN 28 2015

NOTE: "FAIR" INDICATES FEW OR NO CLOUDS BELOW 12,000 FEET WITH NO
SIGNIFICANT WEATHER AND/OR OBSTRUCTIONS TO VISIBILITY.

* THESE STATIONS ARE NOT UNDER NWS QUALITY CONTROL. THEY ALSO MAY NOT
  REPORT WEATHER SUCH AS PRECIPITATION OR FOG.

ILZ001-002-007-009-015-016-024-280800-
NORTHWEST ILLINOIS

CITY           SKY/WX    TMP DP  RH WIND       PRES   REMARKS
MOLINE         CLOUDY    28  23  81 S8        30.23F WCI  20
STERLING*      CLOUDY    21  18  86 E5        30.25S WCI  15
SAVANNA*       CLOUDY    29  25  86 SE3       30.25R FOG
$$

ILZ003-004-008-010-011-017-018-280800-
NORTH CENTRAL ILLINOIS

CITY           SKY/WX    TMP DP  RH WIND       PRES   REMARKS
ROCKFORD       MOCLDY    22  16  78 SE3       30.27F
FREEPORT*      MOCLDY    22  19  90 SE6       30.26S WCI  14
ROCHELLE*      MOCLDY    20  17  86 SE5       30.26S WCI  14
DE KALB*       PTCLDY    19  15  85 S6        30.25F WCI  11
PERU*          CLOUDY    26  23  91 SE6       30.26F WCI  19
$$

ILZ005-006-012>014-019>023-280800-
NORTHEAST ILLINOIS

CITY           SKY/WX    TMP DP  RH WIND       PRES   REMARKS
CHICAGO-OHARE  MOCLDY    24  19  81 CALM      30.25S
CHICAGO-MIDWAY CLOUDY    26  21  81 W3        30.27R
AURORA         FAIR      21  16  81 CALM      30.26F
LANSING*       MOCLDY    20  18  93 S3        30.27R
JOLIET*        PTCLDY    19  16  89 CALM      30.28R
WAUKEGAN       MOCLDY    22  18  85 CALM      30.25R
DUPAGE AIRPORT PTCLDY    20  16  84 CALM      30.26R
KANKAKEE*      PTCLDY    20  18  91 CALM      30.29S
WHEELING       MOCLDY    23  18  81 CALM      30.27F
MORRIS*        PTCLDY    23  19  85 CALM      30.27F
ROMEOVILLE*    PTCLDY    22  18  86 SW3       30.27R
NORTHERLY ISL    N/A     28  19  69 CALM        N/A
$$

LMZ740>746-280800-
SOUTHERN LAKE MICHIGAN

STATION/POSITION SKY/WX   TEMP    WIND        PRES    VSBY  WAVE
                          AIR SEA DIR/SP/G                  HT/PER
                          (F)     (DEG/KT/KT) (MB)    (MI)  (FT/S)
WAUKEGAN HARBOR            26      CALM  /  6   N/A
HARRISON CRIB              27      CALM  /  1   N/A
BURNHAM HARBOR             27      CALM  /  4   N/A
CALUMET HARBOR             27     260/  1/  2   N/A
MICHIGAN CITY              21     120/  4/  5   N/A
$$

ILZ025>027-034>036-040-047-049-050-058-095>099-280800-
WEST-CENTRAL ILLINOIS

CITY           SKY/WX    TMP DP  RH WIND       PRES   REMARKS
QUINCY         PTCLDY    28  26  92 SE8       30.21F FOG     WCI  20
GALESBURG*     CLOUDY    28  26  89 SE7       30.23R WCI  21
MACOMB*        CLOUDY    30  28  92 SE7       30.25S WCI  23
JACKSONVILLE*  CLEAR     27  25  90 E6        30.24S FOG     WCI  21
PITTSFIELD*    CLEAR     28  26  94 E5        30.24S FOG     WCI  22
$$

ILZ028>032-037-038-041>044-048-051>054-059>061-280800-
CENTRAL ILLINOIS

CITY           SKY/WX    TMP DP  RH WIND       PRES   REMARKS
PONTIAC        CLOUDY    27  23  85 SE6       30.28S WCI  20
BLOOMINGTON    PTCLDY    26  24  92 E7        30.25F WCI  18
DECATUR        CLEAR     24  21  88 E8        30.26S WCI  15
PEORIA         CLOUDY    31  24  75 S8        30.25F WCI  23
LACON*         CLOUDY    29  24  81 S3        30.26S
LINCOLN*       CLEAR     27  24  87 CALM      30.27F
SPRINGFIELD    CLEAR     26  22  84 SE6       30.26S WCI  19
TAYLORVILLE    CLEAR     27  23  86 E6        30.26S WCI  20
$$

ILZ033-039-045-046-055>057-062-063-280800-
EAST-CENTRAL ILLINOIS

CITY           SKY/WX    TMP DP  RH WIND       PRES   REMARKS
CHAMPAIGN      CLEAR     21  18  88 CALM      30.27S FOG
DANVILLE*      PTCLDY    19  17  90 CALM      30.25S
RANTOUL*       CLEAR     23  19  85 CALM      30.28R
MATTOON        CLEAR     21  18  88 CALM      30.26S
PARIS*         CLEAR     19  18  96 CALM      30.29S
$$

ILZ079-100>102-280800-
SOUTHWEST ILLINOIS

CITY           SKY/WX    TMP DP  RH WIND       PRES   REMARKS
ALTON          CLEAR     26  25  95 SE5       30.26S FOG     WCI  20
BELLEVILLE     CLEAR     25  25  99 SE2       30.25S
CAHOKIA*       CLEAR     28  25  88 CALM      30.26S
SPARTA*        CLEAR     28  26  93 E3        30.27R
$$

ILZ064>066-069>071-074>076-080>082-084>086-088>090-092>094-280800-
SOUTH-CENTRAL ILLINOIS

CITY           SKY/WX    TMP DP  RH WIND       PRES   REMARKS
CARBONDALE     CLEAR     28  25  88 E3        30.26S
CAIRO*         CLEAR     31  28  87 NE7       30.26R WCI  24
EFFINGHAM*     CLEAR     27  20  75 NE5       30.28F WCI  22
MARION         CLEAR     28  27  93 NE5       30.27S FOG     WCI  23
MT. VERNON     CLEAR     27  21  80 E5        30.26F WCI  21
CENTRALIA*     CLEAR     27  24  91 E3        30.26S FOG
SALEM*         CLEAR     30  26  84 CALM      30.26F
METROPOLIS*    CLEAR     27  27 100 CALM      30.25S FOG
$$

ILZ067-068-072-073-078-083-087-091-280800-
SOUTHEAST ILLINOIS

CITY           SKY/WX    TMP DP  RH WIND       PRES   REMARKS
LAWRENCEVILLE  CLEAR     26  22  84 NE5       30.29F WCI  20
FLORA*         CLEAR     27  24  89 E6        30.27F WCI  20
FAIRFIELD*     CLEAR     27  24  88 NE3       30.26F
HARRISBURG*    CLEAR     30  29  96 NE5       30.28F WCI  25
ROBINSON*      CLEAR     22  22  98 CALM      30.31S FOG
CARMI*         CLEAR     28  27  95 NE5       30.27F WCI  23
$$

ABBREVIATIONS USED IN REMARKS
   TC - TEMPERATURE IN CELSIUS
  WCI - WIND CHILL INDEX
   HX - HEAT INDEX
  VSB - VISIBILITY
$$




USA.gov is the U.S. government's official web portal to all federal, state and local government web resources and services.